Location: Albany
(35.0170°S, 117.8920°E)
Time: 17:07:27
(UTC+08:00)

Explorer 11/Cluster Stage 4 - Pass Details

Date: 27 January 2021
Orbit: 467 x 1257 km, 28.8° (Epoch: 02 March)

Event Time Altitude Azimuth Distance (km) Brightness Sun altitude
Rises 09:59:20 0° 278° (W) 3,509 9.6 54.5°
Reaches altitude 10° 10:02:19 10° 285° (WNW) 2,424 8.9 55.1°
Maximum altitude 10:07:36 40° 353° (N) 1,021 7.9 56.1°
Drops below altitude 10° 10:11:52 10° 63° (ENE) 1,959 9.4 56.9°
Sets 10:14:04 0° 70° (ENE) 2,763 9.9 57.3°
